DW8618 Nerja ES current weather conditions

sailwx.info

Wind from 276 at 0 knots gusting 5

Air temperature 27.8° C
Dewpoint 16.4° C

Last reported at 2014-Aug-20 17:45 UTC.
Time now 2014-Aug-20 18:37 UTC

Location: N 36°46' W 003°52'.
View on Google Maps.

See reports from other nearby stations

  
Tides and Currents Weather Stations Pressure Air Temp Water Temp Dewpoint Dewpoint Depression Visibility Wind Speed Wind Dir Waves Ship Positions
date/time (UTC)wind fromknots sea level pressurealtimeterstation pressurevisibilityair tempwater tempwave heightnotes
2014-Aug-20 17:45 276 0 gusting 5 27.8
2014-Aug-20 17:31 184 0 gusting 6 27.2
2014-Aug-20 17:15 174 2 gusting 6 27.2
2014-Aug-20 17:01 238 5 gusting 8 29.4
2014-Aug-20 16:46 223 2 gusting 6 30.0
2014-Aug-20 16:31 251 1 gusting 4 29.4
2014-Aug-20 16:15 175 28.9
2014-Aug-20 16:01 321 27.8
2014-Aug-20 15:45 198 26.7
2014-Aug-20 15:31 238 3 gusting 7 27.2
2014-Aug-20 15:15 202 2 gusting 7 28.9
2014-Aug-20 15:01 217 1 gusting 6 30.0
2014-Aug-20 14:45 196 0 gusting 6 30.0
2014-Aug-20 14:30 195 0 gusting 6 28.3
2014-Aug-20 14:16 200 3 gusting 5 28.3
2014-Aug-20 14:01 182 1 gusting 6 27.2
2014-Aug-20 13:45 180 0 gusting 4 27.8
2014-Aug-20 13:30 175 2 gusting 6 26.7
2014-Aug-20 13:16 178 4 gusting 6 26.7
2014-Aug-20 13:01 165 0 gusting 6 26.1
2014-Aug-20 12:45 186 5 gusting 6 25.6
2014-Aug-20 12:31 161 4 gusting 6 26.1
2014-Aug-20 12:15 163 3 gusting 6 26.1
2014-Aug-20 12:01 170 3 gusting 6 26.1
2014-Aug-20 11:45 172 3 gusting 6 26.1
2014-Aug-20 11:30 151 2 gusting 7 25.6
2014-Aug-20 11:15 148 5 gusting 7 25.6
2014-Aug-20 11:01 088 1 gusting 6 25.6
2014-Aug-20 10:45 167 4 gusting 9 25.6
2014-Aug-20 10:30 170 2 gusting 7 25.6
2014-Aug-20 10:15 166 3 gusting 6 25.6
2014-Aug-20 10:01 167 4 gusting 6 25.6
2014-Aug-20 09:45 176 25.0
2014-Aug-20 09:30 180 4 gusting 7 24.4
2014-Aug-20 09:15 175 3 gusting 5 24.4
2014-Aug-20 09:01 175 24.4
2014-Aug-20 08:45 173 1 gusting 6 24.4
2014-Aug-20 08:31 118 0 gusting 4 25.0
2014-Aug-20 08:15 138 1 gusting 5 24.4
2014-Aug-20 08:01 092 24.4
2014-Aug-20 07:45 109 2 gusting 6 24.4
2014-Aug-20 07:30 132 0 gusting 4 24.4
2014-Aug-20 07:15 126 24.4
2014-Aug-20 07:01 005 23.9
2014-Aug-20 06:45 005 22.8
2014-Aug-20 06:30 005 21.7
2014-Aug-20 06:15 005 20.6
2014-Aug-20 06:01 005 20.6
2014-Aug-20 05:45 005 21.1
2014-Aug-20 05:31 005 20.0
2014-Aug-20 05:15 016 0 gusting 3 20.0
2014-Aug-20 05:01 024 19.4
2014-Aug-20 04:45 039 20.0
2014-Aug-20 04:30 039 20.6
2014-Aug-20 04:15 039 20.6
2014-Aug-20 04:01 042 20.6
2014-Aug-20 03:46 046 20.6
2014-Aug-20 03:30 061 21.1
2014-Aug-20 03:15 046 21.1
2014-Aug-20 03:01 046 20.6
2014-Aug-20 02:45 046 20.6
2014-Aug-20 02:30 064 20.6
2014-Aug-20 02:15 119 21.1
2014-Aug-20 02:01 119 21.1
2014-Aug-20 01:45 120 21.7
2014-Aug-20 01:30 120 21.7
2014-Aug-20 01:15 120 21.7
2014-Aug-20 01:01 120 21.7
2014-Aug-20 00:46 120 21.7
2014-Aug-20 00:30 120 21.7
2014-Aug-20 00:15 119 22.2
2014-Aug-20 00:01 119 22.2
2014-Aug-19 23:45 119 22.2
2014-Aug-19 23:31 119 22.8
2014-Aug-19 23:15 117 23.3
2014-Aug-19 23:01 117 22.8
2014-Aug-19 22:45 117 23.3
2014-Aug-19 22:30 116 23.9
2014-Aug-19 22:16 116 23.9
2014-Aug-19 22:01 115 23.9
2014-Aug-19 21:46 116 23.9
2014-Aug-19 21:31 116 23.9
2014-Aug-19 21:15 117 23.9
2014-Aug-19 21:01 093 24.4
2014-Aug-19 20:45 086 0 gusting 5 24.4
2014-Aug-19 20:30 105 0 gusting 4 25.0
2014-Aug-19 20:16 098 24.4
2014-Aug-19 20:01 157 25.0
2014-Aug-19 19:45 219 25.0
2014-Aug-19 19:30 292 25.6
2014-Aug-19 19:15 292 25.6
2014-Aug-19 19:01 232 25.6
2014-Aug-19 18:45 260 26.1
2014-Aug-19 18:30 260 26.7
2014-Aug-19 18:16 278 27.2
2014-Aug-19 18:01 206 0 gusting 5 27.8
2014-Aug-19 17:46 205 2 gusting 6 28.3
2014-Aug-19 17:30 241 1 gusting 6 28.3
2014-Aug-19 17:15 247 0 gusting 6 27.8
2014-Aug-19 17:01 227 0 gusting 7 27.8
2014-Aug-19 16:45 252 4 gusting 10 27.8
2014-Aug-19 16:30 227 1 gusting 6 29.4
2014-Aug-19 16:15 273 0 gusting 7 28.9
2014-Aug-19 16:01 241 0 gusting 6 28.3
2014-Aug-19 15:45 231 3 gusting 7 27.8
2014-Aug-19 15:30 206 3 gusting 7 27.8
2014-Aug-19 15:16 204 3 gusting 7 27.8
2014-Aug-19 15:01 202 1 gusting 9 27.2
2014-Aug-19 14:45 202 1 gusting 7 27.2
2014-Aug-19 14:31 175 4 gusting 7 26.7
2014-Aug-19 14:15 211 2 gusting 6 27.8
2014-Aug-19 14:01 193 4 gusting 7 26.7
2014-Aug-19 13:45 181 4 gusting 7 26.7
2014-Aug-19 13:31 190 4 gusting 6 26.1
2014-Aug-19 13:15 188 4 gusting 7 26.1
2014-Aug-19 13:01 248 1 gusting 6 26.1
2014-Aug-19 12:45 190 3 gusting 6 25.0
2014-Aug-19 12:30 197 1 gusting 6 25.0
2014-Aug-19 12:15 207 1 gusting 6 24.4
2014-Aug-19 12:01 199 4 gusting 6 24.4
2014-Aug-19 11:45 188 1 gusting 10 24.4
2014-Aug-19 11:30 208 2 gusting 6 23.9
2014-Aug-19 11:15 191 5 gusting 9 23.9
2014-Aug-19 11:01 221 2 gusting 8 25.0
2014-Aug-19 10:45 200 5 gusting 6 24.4
2014-Aug-19 10:31 191 3 gusting 6 24.4
2014-Aug-19 10:16 190 4 gusting 6 23.3
2014-Aug-19 10:01 196 1 gusting 5 23.3
2014-Aug-19 09:45 197 3 gusting 6 23.3
2014-Aug-19 09:31 201 3 gusting 6 23.9
2014-Aug-19 09:15 201 3 gusting 6 23.9
2014-Aug-19 09:01 202 0 gusting 6 23.9
2014-Aug-19 08:45 206 3 gusting 6 23.9
2014-Aug-19 08:30 217 1 gusting 6 24.4
2014-Aug-19 08:15 277 24.4
2014-Aug-19 08:01 277 23.9
2014-Aug-19 07:45 316 24.4
2014-Aug-19 07:30 316 23.9
2014-Aug-19 07:15 316 23.3
2014-Aug-19 07:01 316 22.8
2014-Aug-19 06:45 316 22.2
2014-Aug-19 06:31 316 21.1
2014-Aug-19 06:15 315 21.1
2014-Aug-19 06:01 315 21.7
2014-Aug-19 05:45 315 21.7
2014-Aug-19 05:31 315 21.7
2014-Aug-19 05:15 315 21.1
2014-Aug-19 05:01 315 21.7
2014-Aug-19 04:45 315 21.7
2014-Aug-19 04:30 315 21.1
2014-Aug-19 04:15 315 1 gusting 4 21.7
2014-Aug-19 04:01 327 0 gusting 3 21.1
2014-Aug-19 03:45 336 21.1
2014-Aug-19 03:31 327 1 gusting 5 21.7
2014-Aug-19 03:15 333 1 gusting 5 21.7
2014-Aug-19 03:01 331 21.7
2014-Aug-19 02:45 331 21.7
2014-Aug-19 02:30 331 21.7
2014-Aug-19 02:15 317 21.7
2014-Aug-19 02:01 317 21.7
2014-Aug-19 01:45 317 22.2
2014-Aug-19 01:30 317 22.2
2014-Aug-19 01:16 317 22.2
2014-Aug-19 01:01 317 22.2
2014-Aug-19 00:45 317 22.2
2014-Aug-19 00:31 317 22.2
2014-Aug-19 00:15 317 22.2
2014-Aug-19 00:01 300 22.8
2014-Aug-18 23:45 294 22.8
2014-Aug-18 23:30 286 22.8
2014-Aug-18 23:15 286 23.3
2014-Aug-18 23:01 286 23.3
2014-Aug-18 22:45 279 23.3
2014-Aug-18 22:31 279 23.9
2014-Aug-18 22:15 279 23.9
2014-Aug-18 22:01 285 23.9
2014-Aug-18 21:45 248 23.9
2014-Aug-18 21:30 209 23.3
2014-Aug-18 21:16 209 23.3
2014-Aug-18 21:01 209 23.3
2014-Aug-18 20:46 209 23.3
2014-Aug-18 20:30 209 23.3
2014-Aug-18 20:15 209 23.3
2014-Aug-18 20:01 209 23.9
2014-Aug-18 19:45 209 23.9
2014-Aug-18 19:31 209 23.9
2014-Aug-18 19:15 209 23.9
2014-Aug-18 19:01 209 23.9
2014-Aug-18 18:46 208 24.4
2014-Aug-18 18:30 215 24.4
2014-Aug-18 18:15 259 1 gusting 4 24.4
2014-Aug-18 18:01 187 1 gusting 4 24.4